Weather History for KDUH - November, 2013

Change the Weather History Date:

Sunday, November 17, 2013

  Actual Average (KTOL) Record (KTOL)
Temperature  
Mean Temperature 59 °F 41 °F  
Max Temperature 68 °F 49 °F 71 °F (1931)
Min Temperature 50 °F 33 °F 10 °F (1959)
Degree Days  
Heating Degree Days 6 24  
Month to date heating degree days 355  
Since 1 July heating degree days 881  
Cooling Degree Days 0 0  
Month to date cooling degree days 0  
Year to date cooling degree days 793  
Growing Degree Days 9 (Base 50)    
Moisture  
Dew Point 52 °F    
Average Humidity 76    
Maximum Humidity 88    
Minimum Humidity 59    
Precipitation  
Precipitation 0.00 in 0.09 in 0.74 in (1978)
Month to date precipitation 1.57  
Year to date precipitation 30.27  
Snow  
Snow 0.00 in 0.10 in - ()
Month to date snowfall 0.7  
Since 1 July snowfall 0.9  
Since 1 September snowfall 0.9  
Snow Depth -    
Sea Level Pressure  
Sea Level Pressure 29.58 in    
Wind  
Wind Speed 14 mph (SSW)    
Max Wind Speed 31 mph    
Max Gust Speed 45 mph    
Visibility 10 miles    
Events Rain    
T = Trace of Precipitation, MM = Missing Value Source: NWS Daily Summary

Daily Weather History Graph

Daily Weather History Graph

Search for Another Location

Airport or City:

Trip Planner

Search our weather history database for the weather conditions in past years. The results will help you decide how hot, cold, wet, or windy it might be!

Date:

Astronomy

Nov. 17, 2013 Rise Set
Actual Time 7:26 AM EST 5:12 PM EST
Civil Twilight 6:56 AM EST 5:42 PM EST
Nautical Twilight 6:22 AM EST 6:16 PM EST
Astronomical Twilight 5:49 AM EST 6:49 PM EST
Moon 5:28 PM EST (11/17) 7:19 AM EST (11/17)
Length of Visible Light 10h 45m
Length of Day
9h 45m
Full, 100% of the Moon is Illuminated
Nov 17
Full
Nov 25
Last Quarter
Dec 2
New
Dec 9
First Quarter
Dec 17
Full

Hourly Weather History & Observations

Time (EST) Temp. Dew Point Humidity Pressure Visibility Wind Dir Wind Speed Gust Speed Precip Events Conditions
12:15 AM 57.2 °F 51.8 °F 82% 29.84 in 10.0 mi South 11.5 mph 17.3 mph N/A   Mostly Cloudy
12:35 AM 59.0 °F 51.8 °F 77% 29.82 in 10.0 mi South 12.7 mph 17.3 mph N/A   Overcast
12:55 AM 59.0 °F 51.8 °F 77% 29.81 in 10.0 mi South 12.7 mph 19.6 mph N/A   Mostly Cloudy
1:15 AM 59.0 °F 51.8 °F 77% 29.80 in 10.0 mi South 9.2 mph 21.9 mph N/A   Mostly Cloudy
1:35 AM 59.0 °F 51.8 °F 77% 29.79 in 10.0 mi South 9.2 mph - N/A   Overcast
1:55 AM 59.0 °F 51.8 °F 77% 29.78 in 10.0 mi South 11.5 mph 18.4 mph N/A   Overcast
2:15 AM 59.0 °F 53.6 °F 82% 29.78 in 10.0 mi South 10.4 mph 19.6 mph N/A Rain Light Rain
2:35 AM 59.0 °F 53.6 °F 82% 29.76 in 10.0 mi South 10.4 mph 16.1 mph N/A   Overcast
2:55 AM 59.0 °F 53.6 °F 82% 29.75 in 10.0 mi South 11.5 mph 20.7 mph N/A   Overcast
3:15 AM 59.0 °F 53.6 °F 82% 29.75 in 10.0 mi South 11.5 mph 20.7 mph N/A   Overcast
3:35 AM 60.8 °F 53.6 °F 77% 29.75 in 10.0 mi South 11.5 mph 20.7 mph N/A   Overcast
3:55 AM 60.8 °F 53.6 °F 77% 29.73 in 10.0 mi South 13.8 mph 20.7 mph N/A Rain Light Rain
4:15 AM 59.0 °F 55.4 °F 88% 29.72 in 10.0 mi South 15.0 mph 25.3 mph N/A   Light Drizzle
4:35 AM 59.0 °F 55.4 °F 88% 29.71 in 10.0 mi South 11.5 mph 28.8 mph N/A Rain Rain
4:55 AM 60.8 °F 55.4 °F 82% 29.72 in 10.0 mi SSW 12.7 mph 19.6 mph N/A   Overcast
5:15 AM 60.8 °F 55.4 °F 82% 29.72 in 10.0 mi SSW 9.2 mph 19.6 mph N/A   Overcast
5:35 AM 59.0 °F 53.6 °F 82% 29.72 in 10.0 mi SSW 13.8 mph 23.0 mph N/A   Scattered Clouds
5:55 AM 60.8 °F 53.6 °F 77% 29.71 in 10.0 mi South 12.7 mph 17.3 mph N/A   Mostly Cloudy
6:15 AM 60.8 °F 53.6 °F 77% 29.71 in 10.0 mi SSW 12.7 mph 18.4 mph N/A   Overcast
6:35 AM 60.8 °F 53.6 °F 77% 29.72 in 10.0 mi South 10.4 mph 19.6 mph N/A   Overcast
6:55 AM 59.0 °F 53.6 °F 82% 29.72 in 10.0 mi South 10.4 mph 18.4 mph N/A Rain Light Rain
7:15 AM 59.0 °F 53.6 °F 82% 29.71 in 10.0 mi South 12.7 mph 17.3 mph N/A Rain Rain
7:35 AM 59.0 °F 53.6 °F 82% 29.72 in 10.0 mi South 10.4 mph 18.4 mph N/A Rain Rain
7:55 AM 59.0 °F 53.6 °F 82% 29.73 in 10.0 mi South 5.8 mph - N/A   Overcast
8:15 AM 59.0 °F 53.6 °F 82% 29.71 in 10.0 mi SSE 8.1 mph 18.4 mph N/A   Overcast
8:35 AM 59.0 °F 53.6 °F 82% 29.71 in 10.0 mi South 9.2 mph 16.1 mph N/A   Overcast
8:55 AM 59.0 °F 53.6 °F 82% 29.70 in 10.0 mi South 11.5 mph 19.6 mph N/A   Overcast
9:15 AM 60.8 °F 55.4 °F 82% 29.69 in 10.0 mi South 10.4 mph 19.6 mph N/A   Mostly Cloudy
9:35 AM 60.8 °F 55.4 °F 82% 29.69 in 10.0 mi South 15.0 mph 19.6 mph N/A   Mostly Cloudy
9:55 AM 60.8 °F 55.4 °F 82% 29.69 in 10.0 mi South 13.8 mph 21.9 mph N/A   Mostly Cloudy
10:15 AM 62.6 °F 55.4 °F 77% 29.66 in 10.0 mi South 13.8 mph 20.7 mph N/A   Clear
10:35 AM 62.6 °F 55.4 °F 77% 29.66 in 10.0 mi South 15.0 mph 24.2 mph N/A Rain Light Rain
10:55 AM 60.8 °F 55.4 °F 82% 29.65 in 10.0 mi South 12.7 mph 25.3 mph N/A Rain Light Rain
11:15 AM 62.6 °F 57.2 °F 82% 29.64 in 10.0 mi South 10.4 mph 18.4 mph N/A   Overcast
11:35 AM 64.4 °F 57.2 °F 77% 29.64 in 10.0 mi South 16.1 mph 26.5 mph N/A   Overcast
11:55 AM 64.4 °F 57.2 °F 77% 29.62 in 10.0 mi SSW 16.1 mph 25.3 mph N/A   Overcast
12:15 PM 64.4 °F 55.4 °F 73% 29.59 in 10.0 mi South 12.7 mph 27.6 mph N/A   Overcast
12:35 PM 66.2 °F 55.4 °F 68% 29.57 in 10.0 mi South 23.0 mph 31.1 mph N/A   Overcast
12:55 PM 68.0 °F 55.4 °F 64% 29.55 in 10.0 mi SSW 15.0 mph 33.4 mph N/A   Mostly Cloudy
1:15 PM 68.0 °F 55.4 °F 64% 29.54 in 10.0 mi South 17.3 mph 26.5 mph N/A   Overcast
1:35 PM 66.2 °F 55.4 °F 68% 29.53 in 10.0 mi South 18.4 mph 34.5 mph N/A   Overcast
1:55 PM 66.2 °F 55.4 °F 68% 29.50 in 10.0 mi South 17.3 mph 34.5 mph N/A   Overcast
2:15 PM 66.2 °F 55.4 °F 68% 29.49 in 10.0 mi South 15.0 mph 27.6 mph N/A   Overcast
2:35 PM 66.2 °F 55.4 °F 68% 29.47 in 10.0 mi SSW 16.1 mph 26.5 mph N/A   Overcast
2:55 PM 66.2 °F 55.4 °F 68% 29.44 in 10.0 mi South 15.0 mph 27.6 mph N/A   Overcast
3:15 PM 66.2 °F 55.4 °F 68% 29.45 in 10.0 mi South 13.8 mph 28.8 mph N/A   Overcast
3:35 PM 66.2 °F 55.4 °F 68% 29.44 in 10.0 mi South 21.9 mph 35.7 mph N/A   Overcast
3:55 PM 66.2 °F 57.2 °F 73% 29.42 in 10.0 mi SSW 16.1 mph 24.2 mph N/A   Overcast
4:15 PM 64.4 °F 57.2 °F 77% 29.39 in 10.0 mi South 19.6 mph 29.9 mph N/A   Overcast
4:35 PM 64.4 °F 57.2 °F 77% 29.37 in 10.0 mi South 20.7 mph 27.6 mph N/A   Overcast
4:55 PM 62.6 °F 57.2 °F 82% 29.34 in 10.0 mi South 12.7 mph 25.3 mph N/A Rain Light Rain
5:15 PM 62.6 °F 59.0 °F 88% 29.34 in 5.0 mi South 18.4 mph 27.6 mph N/A Rain Rain
5:35 PM 62.6 °F 59.0 °F 88% 29.32 in 4.0 mi South 12.7 mph 24.2 mph N/A Rain Rain
5:55 PM 62.6 °F 57.2 °F 82% 29.34 in 10.0 mi SW 13.8 mph 24.2 mph N/A Rain Light Rain
6:15 PM 60.8 °F 53.6 °F 77% 29.33 in 10.0 mi SSW 13.8 mph 25.3 mph N/A Rain Rain
6:35 PM 59.0 °F 53.6 °F 82% 29.35 in 10.0 mi SSW 16.1 mph 23.0 mph N/A   Overcast
6:55 PM 59.0 °F 53.6 °F 82% 29.35 in 10.0 mi SSW 13.8 mph 23.0 mph N/A   Scattered Clouds
7:15 PM 59.0 °F 53.6 °F 82% 29.34 in 10.0 mi SSW 19.6 mph 25.3 mph N/A   Clear
7:35 PM 59.0 °F 51.8 °F 77% 29.34 in 10.0 mi SW 17.3 mph 26.5 mph N/A   Clear
7:55 PM 59.0 °F 44.6 °F 59% 29.36 in 10.0 mi WSW 31.1 mph 44.9 mph N/A   Clear
8:15 PM 55.4 °F 42.8 °F 63% 29.40 in 10.0 mi West 20.7 mph 40.3 mph N/A   Scattered Clouds
8:35 PM 53.6 °F 42.8 °F 67% 29.42 in 10.0 mi WSW 16.1 mph 27.6 mph N/A   Mostly Cloudy
8:55 PM 53.6 °F 41.0 °F 62% 29.43 in 10.0 mi WSW 23.0 mph 34.5 mph N/A   Overcast
9:15 PM 53.6 °F 41.0 °F 62% 29.44 in 10.0 mi WSW 21.9 mph 40.3 mph N/A   Overcast
9:35 PM 51.8 °F 41.0 °F 67% 29.45 in 10.0 mi WSW 24.2 mph 35.7 mph N/A   Overcast
9:55 PM 51.8 °F 41.0 °F 67% 29.46 in 10.0 mi WSW 24.2 mph 31.1 mph N/A   Overcast
10:15 PM 51.8 °F 41.0 °F 67% 29.49 in 10.0 mi West 26.5 mph 36.8 mph N/A   Overcast
10:35 PM 50.0 °F 41.0 °F 71% 29.51 in 10.0 mi West 19.6 mph 29.9 mph N/A   Overcast
10:55 PM 50.0 °F 41.0 °F 71% 29.52 in 10.0 mi West 20.7 mph 31.1 mph N/A   Overcast
11:15 PM 50.0 °F 41.0 °F 71% 29.54 in 10.0 mi WSW 18.4 mph 26.5 mph N/A   Overcast
11:35 PM 50.0 °F 41.0 °F 71% 29.56 in 10.0 mi West 13.8 mph 28.8 mph N/A   Overcast
11:55 PM 50.0 °F 41.0 °F 71% 29.57 in 10.0 mi West 16.1 mph 29.9 mph N/A   Overcast